SKYSAT-C6 (42992 NORAD) Tracking and Keplerian Element Data

This shows tracking and keplerian element data for the satellite.

Feedback or suggestion? Click here.




ElementValue
Catalog42992
NameSKYSAT-C6
Epoch Orbit7690
Epoch Day80.81406907
Epoch Year2019
RAAN196.0519
Inclination97.4195
Eccentricity0.000998
Argument of Perigee290.5969
Mean Anonmoly197.334
Mean Motion15.21670932
Decay Rate7.77E-06
L11 42992U 17068F 19080.81406907 .00000777 00000-0 37404-4 0 9994
L22 42992 97.4195 196.0519 0009980 290.5969 197.3340 15.21670932 76905

Live tracking and technical data element details for SKYSAT-C6 (NORAD 42992). SKYSAT-C6 can be tracked NOW for your location showing map with azimuth and elevation plus other details from your city location.

Track the satellite on the map from your city or location and see movement details for azimuth, elevation, latitude, longitude, range, height, and movement on the map or in text.







IsCatalogInMostPopularTable: catalog: 42992, numindb: 217
Update: records affected: 1



GetName: 42992 SKYSAT-C6

Hit Count: updated at: Sat, 23 Mar 2019 02:47:51 GMT